Total_Precipitation_Accumulation
0.04 0.01 0.02 0.02 0.06 0.07 0.06 0.08 0.11 0.12 0.11 0.10 0.10 0.11 0.12 0.10 0.08 0.07 0.06 0.09 0.12 0.18 0.22 0.23 0.20 0.17 0.17 0.16 0.13 0.10 0.08 0.07 0.09 0.11 0.14 0.16 0.17 0.17 0.17 0.17 0.20 0.21 0.12
0.03 0.01 0.01 0.01 0.03 0.05 0.06 0.09 0.10 0.11 0.12 0.13 0.13 0.15 0.14 0.10 0.08 0.07 0.07 0.10 0.15 0.19 0.20 0.20 0.17 0.15 0.15 0.13 0.09 0.07 0.07 0.07 0.12 0.17 0.21 0.23 0.27 0.22 0.20 0.19 0.24 0.29 0.19
0.02 0.00 0.01 0.01 0.02 0.04 0.06 0.09 0.09 0.09 0.11 0.12 0.13 0.12 0.10 0.08 0.07 0.06 0.06 0.09 0.14 0.15 0.14 0.10 0.08 0.08 0.08 0.06 0.05 0.06 0.07 0.10 0.15 0.26 0.47 0.42 0.33 0.22 0.21 0.19 0.17 0.15 0.18
0.02 0.01 0.00 0.01 0.02 0.03 0.04 0.07 0.10 0.10 0.09 0.10 0.10 0.09 0.08 0.07 0.07 0.07 0.07 0.10 0.11 0.10 0.07 0.05 0.04 0.04 0.04 0.04 0.04 0.05 0.07 0.12 0.21 0.40 0.77 0.65 0.44 0.28 0.24 0.22 0.18 0.15 0.17
0.02 0.01 0.02 0.01 0.03 0.05 0.04 0.04 0.08 0.11 0.11 0.10 0.10 0.10 0.11 0.10 0.09 0.08 0.09 0.10 0.10 0.09 0.09 0.09 0.07 0.03 0.03 0.03 0.04 0.06 0.10 0.16 0.29 0.60 1.02 0.94 0.74 0.49 0.31 0.28 0.29 0.23 0.20
0.02 0.01 0.01 0.02 0.03 0.06 0.06 0.05 0.07 0.09 0.11 0.12 0.13 0.12 0.12 0.11 0.10 0.08 0.08 0.09 0.09 0.10 0.13 0.15 0.10 0.04 0.03 0.03 0.04 0.08 0.12 0.19 0.35 0.68 1.12 1.14 0.81 0.50 0.36 0.33 0.33 0.28 0.23
0.03 0.02 0.02 0.04 0.05 0.06 0.07 0.08 0.09 0.08 0.10 0.14 0.14 0.12 0.10 0.11 0.10 0.09 0.09 0.09 0.10 0.13 0.15 0.12 0.07 0.03 0.02 0.03 0.05 0.09 0.16 0.26 0.42 0.87 1.18 1.06 0.94 0.57 0.41 0.38 0.37 0.31 0.23
0.07 0.04 0.04 0.06 0.06 0.08 0.10 0.11 0.14 0.13 0.13 0.15 0.14 0.11 0.10 0.08 0.09 0.11 0.10 0.10 0.13 0.17 0.16 0.07 0.02 0.01 0.01 0.03 0.05 0.09 0.18 0.24 0.35 0.82 1.16 0.89 0.71 0.48 0.38 0.36 0.35 0.29 0.25
0.10 0.10 0.07 0.06 0.07 0.09 0.13 0.12 0.14 0.16 0.15 0.14 0.13 0.13 0.13 0.13 0.14 0.14 0.13 0.12 0.15 0.16 0.11 0.04 0.01 0.01 0.02 0.02 0.03 0.06 0.13 0.21 0.38 0.59 0.65 0.62 0.52 0.40 0.32 0.24 0.19 0.17 0.17
0.19 0.21 0.15 0.09 0.08 0.07 0.05 0.09 0.12 0.15 0.18 0.14 0.10 0.12 0.13 0.12 0.11 0.11 0.10 0.11 0.12 0.12 0.08 0.04 0.03 0.02 0.01 0.01 0.02 0.04 0.09 0.15 0.24 0.44 0.63 0.52 0.38 0.38 0.38 0.26 0.17 0.13 0.12
0.25 0.34 0.18 0.11 0.10 0.10 0.06 0.05 0.08 0.12 0.14 0.11 0.08 0.09 0.08 0.17 0.22 0.19 0.12 0.11 0.10 0.09 0.08 0.06 0.04 0.02 0.01 0.01 0.01 0.02 0.04 0.09 0.23 0.48 0.65 0.54 0.38 0.40 0.38 0.31 0.20 0.15 0.14
0.29 0.35 0.25 0.14 0.11 0.14 0.10 0.09 0.08 0.06 0.07 0.09 0.15 0.12 0.16 0.34 0.41 0.30 0.26 0.17 0.12 0.11 0.09 0.07 0.05 0.04 0.02 0.02 0.02 0.02 0.03 0.07 0.24 0.45 0.50 0.41 0.37 0.42 0.46 0.37 0.25 0.19 0.17
0.39 0.32 0.32 0.28 0.23 0.30 0.20 0.18 0.17 0.16 0.20 0.21 0.29 0.30 0.39 0.48 0.39 0.38 0.42 0.26 0.19 0.14 0.14 0.12 0.06 0.06 0.05 0.05 0.04 0.04 0.05 0.08 0.16 0.28 0.31 0.32 0.37 0.46 0.54 0.46 0.36 0.31 0.27
0.53 0.43 0.47 0.48 0.40 0.38 0.35 0.37 0.33 0.29 0.29 0.31 0.39 0.36 0.51 0.58 0.55 0.50 0.49 0.38 0.34 0.31 0.29 0.22 0.14 0.12 0.11 0.09 0.07 0.07 0.09 0.09 0.14 0.19 0.30 0.34 0.39 0.51 0.59 0.58 0.49 0.40 0.36
0.65 0.72 0.64 0.59 0.53 0.54 0.60 0.58 0.48 0.40 0.35 0.38 0.47 0.47 0.51 0.55 0.59 0.62 0.53 0.49 0.44 0.45 0.41 0.29 0.27 0.24 0.17 0.19 0.15 0.14 0.14 0.13 0.15 0.20 0.31 0.39 0.40 0.50 0.62 0.66 0.61 0.53 0.51
0.60 0.71 0.83 0.80 0.75 0.73 0.74 0.69 0.58 0.51 0.53 0.52 0.55 0.57 0.54 0.62 0.76 0.79 0.74 0.72 0.69 0.68 0.70 0.56 0.48 0.47 0.35 0.32 0.31 0.30 0.27 0.25 0.27 0.32 0.42 0.46 0.44 0.48 0.60 0.70 0.72 0.73 0.73
0.74 0.83 0.99 1.04 1.04 1.01 1.02 1.00 0.86 0.76 0.72 0.74 0.80 0.84 0.71 0.73 0.91 0.93 1.01 0.99 0.95 0.97 1.00 0.97 0.84 0.76 0.65 0.56 0.51 0.44 0.39 0.39 0.41 0.44 0.51 0.58 0.56 0.53 0.55 0.61 0.69 0.75 0.77
0.74 0.87 0.89 1.03 1.09 1.20 1.33 1.37 1.17 1.14 1.09 1.08 1.04 1.06 0.94 0.94 1.06 1.20 1.25 1.24 1.20 1.20 1.27 1.29 1.22 1.04 0.90 0.79 0.74 0.65 0.60 0.57 0.52 0.56 0.66 0.78 0.85 0.80 0.76 0.70 0.70 0.72 0.76
0.67 0.90 1.03 1.15 1.32 1.35 1.44 1.58 1.55 1.56 1.53 1.45 1.46 1.42 1.45 1.45 1.42 1.48 1.55 1.59 1.57 1.63 1.64 1.56 1.51 1.30 1.19 1.10 0.99 0.88 0.74 0.70 0.70 0.65 0.71 0.76 0.81 0.84 0.84 0.78 0.71 0.69 0.75
0.79 0.98 1.14 1.33 1.59 1.84 1.85 1.93 1.87 2.01 2.15 2.16 2.18 2.15 2.03 2.03 2.05 2.11 2.03 1.98 1.98 2.03 1.92 1.88 1.83 1.62 1.44 1.34 1.09 0.95 0.86 0.81 0.80 0.76 0.71 0.69 0.68 0.65 0.65 0.67 0.72 0.69 0.70
1.29 1.32 1.38 1.44 1.65 1.86 2.13 2.39 2.52 2.57 2.78 2.87 2.92 3.06 3.05 3.00 3.06 3.05 2.93 2.74 2.57 2.43 2.27 2.15 1.97 1.80 1.62 1.48 1.32 1.06 0.81 0.68 0.71 0.69 0.67 0.67 0.65 0.62 0.61 0.61 0.58 0.56 0.60
1.60 1.58 1.67 1.73 1.93 2.16 2.51 2.89 3.28 3.44 3.57 3.56 3.58 3.77 3.89 3.90 4.00 4.08 3.92 3.68 3.45 3.08 2.65 2.29 2.06 1.93 1.74 1.62 1.50 1.36 1.00 0.75 0.61 0.50 0.54 0.58 0.58 0.59 0.56 0.53 0.50 0.50 0.51
1.66 1.73 1.81 2.07 2.43 2.83 3.25 3.72 4.10 4.37 4.40 4.33 4.09 4.12 4.25 4.25 4.27 4.42 4.39 4.08 3.63 3.06 2.58 2.35 2.22 2.06 1.87 1.72 1.54 1.49 1.27 1.01 0.74 0.53 0.45 0.42 0.43 0.42 0.40 0.41 0.40 0.42 0.43
1.65 1.82 1.93 2.22 2.73 3.17 3.60 4.18 4.64 4.88 5.05 5.14 4.94 4.65 4.50 4.36 4.24 4.13 3.98 3.57 3.09 2.70 2.42 2.30 2.20 1.99 1.88 1.71 1.57 1.34 1.16 0.99 0.85 0.65 0.48 0.37 0.32 0.28 0.26 0.26 0.27 0.28 0.30
1.60 1.64 1.73 2.11 2.69 3.41 4.09 4.59 5.03 5.33 5.40 5.34 5.01 4.66 4.28 3.96 3.57 3.22 2.89 2.61 2.43 2.23 2.02 1.88 1.78 1.68 1.53 1.37 1.29 1.19 1.05 0.91 0.76 0.63 0.54 0.43 0.37 0.32 0.28 0.26 0.24 0.24 0.25
1.32 1.49 1.73 2.07 2.74 3.49 4.07 4.54 4.87 5.16 5.14 4.82 4.41 3.94 3.64 3.29 2.87 2.50 2.31 2.06 1.87 1.66 1.44 1.30 1.23 1.21 1.21 1.19 1.15 1.07 0.97 0.89 0.79 0.71 0.62 0.50 0.42 0.37 0.31 0.28 0.27 0.27 0.28